Back to catalog

STARLINK-34287

AliveCommunicationsVLEO
NORAD 64670·PAYLOAD·🇺🇸 United States

Launched Jun 28, 2025 from Cape Canaveral Space Force Station

Loading…

Next Passes (next 24 hours)

TLE

FreshSource: CelesTrak SupGP

Epoch: Sep 14, 2026, 22:51 UTC

1 64670C 25139G   26257.95256944  .00020214  00000+0  59737-3 0  2578
2 64670  53.1595 323.7037 0001198  83.8581 173.1470 15.34373439    16

Track STARLINK-34287 in real time with AllMySat

Download on the App Store